www.pogodaiklimat.ru

Погода и климат >> Архив погоды >> ОАЭ >> Sharjah


ПОГОДА в Sharjah

  • Прогноз погоды в Sharjah
  • Монитор погоды в Sharjah
  • Климат города

АРХИВ ПОГОДЫ в Sharjah

Время (UTC), дата Ветер
(напр.,м/с)
 
Видим.   Явления Облачность Т
(С)
Тd
(С)
f
(%)
Тe
(С)
Тes
(С)
Комфортность P
(гПа)
Po
(гПа)
Тmin
(С)
Tmax
(С)
R
(мм)
R24
(мм)
S
(см)
03 9.12 Ю 5 10 км ясно +18.8 +13.4 71 +19 +19 1016.5 1012.3
09 9.12 З 8 10 км ясно +27.1 +12.6 41 +29 +31 жарко 1016.4 1012.3
12 9.12 З 6 10 км ясно +26.8 +13.7 44 +29 +30 жарко 1015.1 1011.0
15 9.12 З 5 10 км ясно +25.6 +13.6 47 +28 +28 жарко 1015.6 1011.5
18 9.12 СЗ 1 10 км ясно +25.2 +15.4 55 +28 +28 жарко 1016.1 1016.1 +28.2
21 9.12 З 4 10 км ясно +24.4 +16.4 61 +28 +28 душно 1015.5 1011.4
03 10.12 З 1 10 км ясно +23.8 +17.7 69 +28 +28 душно 1015.5 1011.3
09 10.12 З 6 10 км ясно +27.1 +15.9 50 +30 +34 душно 1014.5 1010.4
15 10.12 З 4 10 км ясно +25.4 +16.6 58 +29 +29 душно 1014.9 1010.8
18 10.12 штиль 0 10 км ясно +24.7 +16.8 61 +28 +28 душно 1015.8 1011.7 +27.4
21 10.12 Ю 2 10 км ясно +23.3 +17.1 68 +28 +28 душно 1015.0 1010.8
03 11.12 Ю 2 10 км 3/3 900 м
[Sc]
+21.5 +17.5 78 +26 +26 душно 1016.3 1012.2
06 11.12 З 9 10 км 1/0
[Ac trans]
+26.8 +16.8 54 +30 +31 душно 1017.6 1013.8 +21.5
09 11.12 З 9 10 км 3/0
[Ci sp]
+27.7 +15.1 46 +30 +31 жарко 1012.1 1011.9
12 11.12 З 8 10 км ясно +26.7 +14.6 47 +29 +29 жарко 1015.2 1011.3
15 11.12 З 7 10 км ясно +25.2 +14.7 52 +28 +28 жарко 1016.5 1012.4
18 11.12 Ю 2 10 км ясно +23.8 +15.4 59 +27 +27 жарко 1017.4 1013.2 +28.1
21 11.12 Ю 4 10 км 3/3 900 м
[Sc]
+20.5 +15.7 74 +24 +24 комфорт 1017.3 1013.1
00 12.12 Ю 3 10 км 3/3 900 м
[Sc]
+19.3 +15.9 81 +21 +21 комфорт 1017.6 1013.4
03 12.12 Ю 4 10 км 1/1 900 м
[Sc]
+18.7 +16.1 85 +20 +20 1018.8 1014.6
06 12.12 Ю 4 10 км ясно +23.4 +16.6 66 +28 +33 душно 1020.7 1016.6 +18.7
09 12.12 ЮЗ 2 10 км 1/1 1200 м
[Sc]
+26.9 +15.1 48 +30 +38 душно 1018.3 1014.2
12 12.12 СЗ 4 10 км ясно +26.0 +16.5 56 +30 +31 душно 1017.1 1013.0
15 12.12 СЗ 2 10 км ясно +23.4 +16.2 64 +28 +28 душно 1018.6 1014.5
18 12.12 Ю 2 10 км ясно +21.4 +16.0 71 +25 +25 комфорт 1019.6 1015.5 +27.8
03 13.12 ЮВ 2 8000 м мгла ясно +15.3 +14.0 92 +15 +15 1020.2 1016.0
06 13.12 Ю 2 10 км ясно +22.5 +15.8 66 +27 +33 душно 1022.3 1018.1 +15.1
12 13.12 СЗ 5 10 км ясно +24.7 +14.8 54 +27 +28 жарко 1019.0 1014.9
15 13.12 С 3 10 км ясно +22.5 +15.4 64 +26 +26 жарко 1020.4 1016.3
21 13.12 ЮЗ 1 10 км ясно +19.2 +14.9 76 +22 +22 комфорт 1020.4 1016.2
00 14.12 ЮВ 1 7000 м мгла ясно +16.5 +14.5 88 +17 +17 1020.3 1016.1
03 14.12 ЮВ 2 6000 м мгла ясно +15.9 +14.5 91 +16 +16 1021.6 1017.3
06 14.12 В 3 8000 м пыль ясно +23.4 +15.5 61 +28 +33 душно 1022.9 1018.8 +15.6
09 14.12 СВ 3 10 км 1/1 900 м
[Sc]
+26.2 +13.5 45 +28 +36 жарко 1020.3 1016.2
12 14.12 С 6 10 км 1/1 1200 м
[Sc]
+24.8 +16.9 61 +28 +29 жарко 1019.4 1015.3
15 14.12 С 3 10 км ясно +23.5 +15.3 60 +26 +26 жарко 1021.2 1017.1
21 14.12 В 2 10 км ясно +18.6 +14.0 75 +20 +20 1020.6 1016.4
03 15.12 В 2 10 км ясно +17.3 +14.3 83 +18 +18 1021.1 1016.9
06 15.12 В 3 10 км ясно +24.5 +16.0 59 +28 +33 душно 1022.5 1018.4 +16.4
09 15.12 Ю 2 10 км 4/4 1200 м
[Sc]
+27.0 +13.4 43 +29 +34 жарко 1019.9 1015.8
15 15.12 С 3 10 км 3/0
[Ac trans]
+23.8 +16.8 65 +27 +27 жарко 1021.1 1016.9
18 15.12 СВ 2 10 км 1/1 1200 м
[Sc]
+21.3 +15.8 71 +25 +25 комфорт 1021.8 1017.7 +28.2

 

Местоположение метеостанции Sharjah (ОАЭ): широта 25.33 долгота 55.52 высота над уровнем моря 33 м.

В архиве по умолчанию представлена погода в Sharjah за последнюю неделю. Архивные данные за месяц целиком и за предыдущие месяцы, начиная с января 2011 года, Вы можете получить, выбрав интересующий диапазон дат из раскрывающегося списка и нажав кнопку "Ввод!".


*Определитесь, кто Вы:
робот инопланетянин человек

Внимание! Время в таблицах - всемирное. Для получения местного времени необходимо прибавить поправку, которая в Sharjah равна 4 ч.

Смотрите также архив погоды в соседних городах и на ближайших метеорологических станциях:

Погода в Dubai (ОАЭ) (21 км)
Погода в Ras Al Khaimah Int Airport (ОАЭ) (52 км)
Погода в Dubai Al Maktoum Int Airport (ОАЭ) (60 км)
Погода в Diba (Оман) (80 км)
Погода в Fujairah (ОАЭ) (85 км)
Погода в Abu Musa Island (Иран) (89 км)
Погода в Sirri Island (Иран) (117 км)
Погода в Khasab Airport (Оман) (117 км)
Погода в Al Ain Int Airport (ОАЭ) (118 км)
Погода в Khasab (Оман) (122 км)

Пояснения к столбцам:

Ветер - указаны скорость ветра в м/с - средняя за 10 мин, порывы в срок и между сроками (в фигурных скобках) и направление, откуда дует ветер: С - северный, СВ - северо-восточный, В - восточный, ЮВ - юго-восточный, Ю - южный, ЮЗ - юго-западный, З - западный, СЗ - северо-западный.
Видимость - горизонтальная дальность видимости в метрах или километрах. При видимости от 1 до 10 км при отсутствии осадков обычно наблюдается дымка, при ухудшении видимости до 1 км и менее - туман. В сухую погоду видимость может ухудшаться дымом, пылью или мглою.
Явления - указаны атмосферные явления, наблюдавшиеся в срок или в последний час перед сроком; фигурными скобками обозначены явления, наблюдавшиеся между сроками (за 1-3 часа до срока); квадратными скобками обозначены град или гололедные отложения с указанием их диаметра в мм.
Облачность - указаны через наклонную черту общая и нижняя облачность в баллах и высота нижней границы облаков в метрах; квадратными скобками обозначены формы облаков: Ci - перистые, Cs - перисто-слоистые, Cc - перисто-кучевые, Ac - высококучевые, As - высокослоистые, Sc - слоисто-кучевые, Ns - слоисто-дождевые, Cu - кучевые, Cb - кучево-дождевые. Подробнее классификацию облаков см. в Атласе облаков (PDF).
T - Температура воздуха - температура, измеренная на высоте 2 м над землей.
Td - Температура точки росы - температура, при понижении до которой содержащийся в воздухе водяной пар достигнет насыщения.
f - Относительная влажность воздуха - влажноcть воздуха, измеренная на высоте 2 м над землей.
Te - Эффективная температура - температура, которую ощущает одетый по сезону человек в тени. Характеристика душности погоды. При расчете учитывается влияние влажности воздуха и скорости ветра на теплоощущения человека.
Tes - Эффективная температура на солнце - температура, которую ощущает человек, с поправкой на солнечный нагрев. Характеристика знойности погоды. Зависит от высоты солнца над горизонтом, облачности и скорости ветра. Ночью, в пасмурную погоду, а также при ветре 12 м/с и более поправка равна нулю.
P - Атмосферное давление - приведенное к уровню моря атмосферное давление.
Po - Атмосферное давление - измеренное на уровне метеостанции атмосферное давление.
Tmin - Минимальная температура - минимум температуры воздуха на высоте 2 м над землей.
Tmax - Максимальная температура - максимум температуры воздуха на высоте 2 м над землей.
R - Количество осадков - Количество выпавших осадков за период времени, мм. При наведении курсора мыши на число - период времени, за который выпало указанное количество осадков.
R24 - Количество осадков - Количество выпавших осадков за 24 часа, мм.
S - Снежный покров - Высота снежного покрова, см. При наведении курсора мыши на число - состояние снежного покрова и степень покрытия местности в баллах.